CZ-3C R/B, 43875

Orbit data source: Space-Track

CZ-3C R/B, 43875 is space debris in HEO originally from a launch on Mon, 24 Dec 2018 UTC launched from the Xichang Space Center, China (XSC). Debris objects in space refer to the collection of defunct objects orbiting the Earth. Examples of debris include non-operational satellites, rocket bodies, and fragments generated from explosions, collisions, or faulty payload assembly.

Loading next visibility...
Identifier
43875, 2018-110B
Orbit
HEO
Last TLE update
8 hours ago
Origin
Manufacturer
CALT
Mission
Spacecraft
Bus & Motor
CZ-3A STAGE 3, Unknown motor
Mass
~2,800 kg wet, ~2,800 kg dry
Launch date (UTC)
2018-12-24 (7 years ago)
Launch vehicle
Unknown
Launch site
Xichang Space Center, China (XSC)
Object type
Payload
Rocket body
Debris
Shape & HBR
Cyl + 1 Nozzle, 12.38 m
Radar Cross Section
32.704 m², Large (>1 m²)

Expand to show TLE details & history

TLE from 8 hours ago
0 CZ-3C R/B
1 43875U 18110B   25186.61107851  .00043005  00000-0  23882-2 0  9996
2 43875  28.2798  34.8692 6680955  59.2913 349.8484  3.10970625 61500
Epoch: 2025-07-05T14:39Z
TLE epoch observation values (Epoch: 2025-07-05T14:39:57.183Z)
Latitude
-0.00007°
Longitude
-108.93499°
Altitude
1,783.128 km
Speed
8.808 km/s
True Right ascension
02h 19m 35s
True Declination
0° 00' 00"
Sunlit
Object was in daylight at epoch
Visualization orbit readout
Latitude
26.63336°
Longitude
-41.28197°
Altitude
231.651 km
Speed
10.028 km/s
Apparent Right ascension
03h 22m 15s
Apparent Declination
-12° 18' 27"
Sunlit
Object is in daylight
Visualization observer readout
Local Sidereal Time
10:34:21
Azimuth
271.88° WNW
Elevation
-21.633°
Doppler factor
1
Orbital elements
Apogee altitude
26,701.072 km
Perigee altitude
203.703 km
Semi-major axis
19,830.525 km
Eccentricity
0.6681
Inclination
28.2798°
RAAN
34.8692°
Arg. of periapsis
59.2913°
True anomaly
Unknown
Mean anomaly
349.8484°
Eccentric anomaly
Unknown
Mean motion
0.77722 °/min
Orbital period
463.19 mins
BSTAR
0.0023882
Loading maneuver chart data...
Loading SW <> Apogee altitude chart data...
Loading historical data...
Loading historical data...
Loading historical data...
Loading historical data...
Loading historical data...
Loading historical data...
Loading historical data...
Other satellites on launch #110 in the year 2018 (2018-12-24 UTC)

CZ-3C R/B Visibility forecast

Observer location: undefined°, undefined°

Span
Click to sort rows by Start time (UTC) header in descending order
Start Az.
Max El. time (UTC)
Max El. Az.
Max El.
End time (UTC)
End Az.
43 mins2025-07-05 22:45:07.940Z239.863° WSW2025-07-05 22:51:07.940Z175.196° S30.331°2025-07-05 23:28:07.940Z123.082° SE
22 mins2025-07-06 21:54:07.940Z209.102° SW2025-07-06 21:57:07.940Z165.003° S28.039°2025-07-06 22:16:07.940Z117.025° SE
|